{"data":{"norad_id":81845,"epoch":"2026-09-18T06:59:30.951744Z","epoch_age_seconds":205492,"freshness":"STALE","line1":"1 81845U          26261.29133046  .00001708  00000+0  18612-3 0  9997","line2":"2 81845  97.6799  83.6024 0086971 103.7929  70.2530 14.86523142691032","mean_motion":14.86523142,"eccentricity":0.0086971,"inclination_deg":97.6799,"raan_deg":83.6024,"arg_perigee_deg":103.7929,"mean_anomaly_deg":70.253,"bstar":0.00018612,"rev_number":69103,"period_min":96.870338531198,"perigee_km":548.0429089863,"apogee_km":669.57524645136,"semimajor_km":6986.9460777188,"source":"CELESTRAK","updated_at":"2026-09-20T09:00:32.396898Z"}}